Date String (YYYY-MM-DD hh:mm:ss) UTC,Instrument flags,Ambient pressure (hPa),Sample flow (lpm),Bypass flow (lpm),Sample temperature (°C),Ambient temperature (°C),ASC tube jacket temperature (°C),LED temperature (°C),Box temperature (°C),Sample RH (%),Span deviation,Mass concentration (μg/m³),Mass concentration (μg/m³),Mass concentration (μg/m³)
DateTimeUTC,F1_M11,P_M11,Q1_M11,Q2_M11,T1_M11,T2_M11,T3_M11,T4_M11,T5_M11,U1_M11,ZSPAN_M11,X0_M11,X2_M11,X1_M11
2021-08-21 23:00:00,,0824.6,4.99,0.00,29.3,26.2,00.0,38.3,30.6,23.1,0001.9,0019.98,0013.06,0012.27
2021-08-21 23:01:00,,0824.6,5.00,0.00,29.1,25.8,00.0,38.3,30.5,23.3,0002.0,0019.96,0013.12,0012.32
2021-08-21 23:02:00,,0824.6,4.99,0.00,29.1,26.2,00.0,38.2,30.6,23.2,0002.1,0020.02,0013.17,0012.35
2021-08-21 23:03:00,,0824.7,5.01,0.00,29.1,26.7,00.0,38.2,30.7,23.8,0002.2,0020.00,0013.20,0012.39
2021-08-21 23:04:00,,0824.7,4.99,0.00,29.1,27.1,00.0,38.2,30.9,23.5,0002.2,0020.18,0013.24,0012.42
2021-08-21 23:05:00,,0824.7,5.02,0.00,29.1,27.5,00.0,38.2,31.0,23.1,0002.2,0019.81,0013.26,0012.45
2021-08-21 23:06:00,,0824.7,4.99,0.00,29.2,27.8,00.0,38.2,31.1,23.1,0002.2,0019.39,0013.26,0012.45
2021-08-21 23:07:00,,0824.7,5.00,0.00,29.2,28.0,00.0,38.2,31.2,23.2,0002.2,0019.53,0013.25,0012.48
2021-08-21 23:08:00,,0824.6,5.02,0.00,29.3,28.3,00.0,38.3,31.3,23.8,0002.2,0019.83,0013.28,0012.53
2021-08-21 23:09:00,,0824.6,5.00,0.00,29.4,28.5,00.0,38.3,31.4,23.7,0002.2,0020.04,0013.35,0012.60
2021-08-21 23:10:00,,0824.7,5.00,0.00,29.4,28.7,00.0,38.3,31.4,23.6,0002.2,0020.54,0013.40,0012.64
2021-08-21 23:11:00,,0824.7,5.00,0.00,29.5,28.4,00.0,38.4,31.4,23.2,0002.1,0019.98,0013.42,0012.65
2021-08-21 23:12:00,,0824.6,5.01,0.00,29.4,26.5,00.0,38.4,30.8,23.4,0002.0,0020.29,0013.39,0012.61
2021-08-21 23:13:00,,0824.6,5.00,0.00,29.2,25.6,00.0,38.3,30.6,22.6,0001.9,0020.41,0013.36,0012.58
2021-08-21 23:14:00,,0824.7,5.00,0.00,29.2,26.0,00.0,38.3,30.7,22.7,0001.8,0020.60,0013.37,0012.56
2021-08-21 23:15:00,,0824.7,5.01,0.00,29.1,26.4,00.0,38.3,30.7,22.3,0001.6,0020.75,0013.33,0012.51
2021-08-21 23:16:00,,0824.7,4.99,0.00,29.1,26.9,00.0,38.2,30.9,22.4,0001.7,0020.57,0013.30,0012.47
2021-08-21 23:17:00,,0824.6,5.02,0.00,29.2,27.3,00.0,38.2,31.0,22.8,0001.7,0020.34,0013.24,0012.42
2021-08-21 23:18:00,,0824.7,4.98,0.00,29.2,27.7,00.0,38.2,31.1,22.5,0001.8,0020.16,0013.21,0012.38
2021-08-21 23:19:00,,0824.6,5.00,0.00,29.3,28.0,00.0,38.3,31.2,22.3,0001.7,0019.51,0013.14,0012.31
2021-08-21 23:20:00,,0824.6,5.01,0.00,29.3,28.2,00.0,38.3,31.3,21.9,0001.8,0019.21,0013.01,0012.22
2021-08-21 23:21:00,,0824.7,5.00,0.00,29.4,28.4,00.0,38.3,31.4,22.1,0001.8,0018.40,0012.95,0012.16
2021-08-21 23:22:00,,0824.8,4.99,0.00,29.5,28.6,00.0,38.4,31.4,22.3,0001.7,0018.21,0012.86,0012.10
2021-08-21 23:23:00,,0824.8,5.01,0.00,29.5,28.6,00.0,38.4,31.4,22.4,0001.9,0017.83,0012.81,0012.07
2021-08-21 23:24:00,,0824.8,5.00,0.00,29.5,27.1,00.0,38.4,31.0,22.5,0002.0,0018.15,0012.78,0012.05
2021-08-21 23:25:00,,0824.8,5.00,0.00,29.3,25.8,00.0,38.4,30.6,22.7,0002.1,0018.37,0012.78,0012.03
2021-08-21 23:26:00,,0824.8,5.00,0.00,29.2,26.0,00.0,38.3,30.6,23.5,0002.2,0018.11,0012.76,0012.01
2021-08-21 23:27:00,,0824.9,5.00,0.00,29.1,26.4,00.0,38.3,30.7,23.4,0002.0,0018.67,0012.73,0012.01
2021-08-21 23:28:00,,0824.9,4.99,0.00,29.1,26.8,00.0,38.3,30.8,23.7,0002.0,0018.95,0012.76,0012.02
2021-08-21 23:29:00,,0824.9,5.00,0.00,29.2,27.2,00.0,38.3,31.0,24.0,0002.0,0018.96,0012.77,0012.02
2021-08-21 23:30:00,,0824.9,5.00,0.00,29.2,27.6,00.0,38.3,31.1,24.1,0002.1,0018.94,0012.78,0012.02
2021-08-21 23:31:00,,0824.9,5.00,0.00,29.3,27.9,00.0,38.3,31.2,24.6,0002.1,0019.06,0012.86,0012.05
2021-08-21 23:32:00,,0824.9,4.99,0.00,29.3,28.2,00.0,38.3,31.3,24.2,0002.3,0019.66,0012.93,0012.08
2021-08-21 23:33:00,,0824.9,5.01,0.00,29.4,28.4,00.0,38.3,31.3,23.9,0002.4,0020.21,0012.98,0012.12
2021-08-21 23:34:00,,0824.9,4.99,0.00,29.4,28.6,00.0,38.4,31.4,23.9,0002.5,0020.34,0013.03,0012.16
2021-08-21 23:35:00,,0824.9,4.99,0.00,29.5,28.8,00.0,38.4,31.5,23.0,0002.4,0019.83,0012.93,0012.06
2021-08-21 23:36:00,,0824.9,5.00,0.00,29.6,28.5,00.0,38.4,31.4,21.4,0002.4,0018.96,0012.51,0011.68
2021-08-21 23:37:00,,0824.9,5.00,0.00,29.5,26.8,00.0,38.4,31.0,20.6,0002.4,0018.45,0012.08,0011.26
2021-08-21 23:38:00,,0824.9,5.00,0.00,29.3,25.8,00.0,38.4,30.7,20.0,0002.5,0017.10,0011.43,0010.65
2021-08-21 23:39:00,,0824.8,5.01,0.00,29.2,26.0,00.0,38.4,30.7,20.4,0002.4,0016.54,0010.76,0010.03
2021-08-21 23:40:00,,0824.8,5.00,0.00,29.2,26.5,00.0,38.3,30.8,21.1,0002.3,0016.10,0010.11,0009.40
2021-08-21 23:41:00,,0824.8,4.99,0.00,29.2,26.9,00.0,38.3,30.9,20.9,0002.2,0015.32,0009.51,0008.85
2021-08-21 23:42:00,,0824.8,5.01,0.00,29.2,27.3,00.0,38.3,31.0,21.2,0002.0,0014.61,0008.92,0008.31
2021-08-21 23:43:00,,0824.6,4.99,0.00,29.3,27.7,00.0,38.3,31.1,21.4,0001.6,0013.46,0008.24,0007.70
2021-08-21 23:44:00,,0824.6,5.00,0.00,29.3,28.0,00.0,38.3,31.2,21.7,0001.4,0012.01,0007.63,0007.12
2021-08-21 23:45:00,,0824.6,5.02,0.00,29.4,28.2,00.0,38.3,31.3,21.7,0001.2,0011.26,0007.07,0006.59
2021-08-21 23:46:00,,0824.6,5.00,0.00,29.4,28.4,00.0,38.4,31.4,21.2,0001.1,0010.62,0006.57,0006.13
2021-08-21 23:47:00,,0824.6,4.99,0.00,29.5,28.6,00.0,38.4,31.5,21.3,0001.5,0010.40,0006.44,0005.99
2021-08-21 23:48:00,,0824.6,5.01,0.00,29.6,28.7,00.0,38.4,31.5,21.0,0002.0,0010.86,0006.35,0005.94
2021-08-21 23:49:00,,0824.4,5.00,0.00,29.5,27.3,00.0,38.4,31.0,21.7,0002.2,0011.40,0006.46,0006.04
2021-08-21 23:50:00,,0824.6,5.00,0.00,29.3,25.7,00.0,38.4,30.6,21.4,0002.5,0011.18,0006.64,0006.22
2021-08-21 23:51:00,,0824.4,5.00,0.00,29.2,25.9,00.0,38.4,30.7,21.5,0002.7,0010.95,0006.83,0006.39
2021-08-21 23:52:00,,0824.4,5.00,0.00,29.2,26.3,00.0,38.4,30.8,21.2,0002.9,0012.11,0007.05,0006.60
2021-08-21 23:53:00,,0824.4,5.01,0.00,29.2,26.8,00.0,38.3,30.9,21.3,0003.0,0012.48,0007.33,0006.86
2021-08-21 23:54:00,,0824.4,4.99,0.00,29.2,27.2,00.0,38.3,31.0,22.1,0003.2,0012.88,0007.60,0007.09
2021-08-21 23:55:00,,0824.4,5.01,0.00,29.3,27.6,00.0,38.3,31.1,22.4,0003.3,0013.06,0007.73,0007.21
2021-08-21 23:56:00,,0824.4,5.00,0.00,29.3,27.9,00.0,38.3,31.2,22.3,0003.5,0013.24,0007.84,0007.31
2021-08-21 23:57:00,,0824.5,5.02,0.00,29.4,28.2,00.0,38.3,31.3,21.5,0003.5,0013.42,0008.02,0007.48
2021-08-21 23:58:00,,0824.5,4.99,0.00,29.4,28.4,00.0,38.4,31.4,21.4,0003.3,0013.74,0008.30,0007.75
2021-08-21 23:59:00,,0824.4,5.00,0.00,29.5,28.6,00.0,38.4,31.5,21.5,0003.1,0013.57,0008.58,0007.99
